Terug naar catalogus

THORAD DELTA 1 DEB

ActiefSSO
NORAD 8184·DEBRIS·🇺🇸 United States

Gelanceerd Nov 15, 1974 vanaf Vandenberg Space Force Base

Loading…

Volgende Passages (komende 24 uur)

TLE

VersSource: Space-Track

Epoch: Sep 14, 2026, 07:38 UTC

1 08184U 74089BA  26257.31810396 -.00000032  00000-0  75202-4 0  9998
2 08184 101.5523 214.9206 0063418 301.3616 221.0054 12.47613896360028

Volg THORAD DELTA 1 DEB in realtime met AllMySat

Download on the App Store